CPA659 VHHH-WSSS

Flight info

Callsign CPA659
Flight time 3h 28m
Altitude 38000
Route PECAN V12 EPDOS/N0464F400 L642 EPKAL/K0859F400 L642 ESPOB/N0458F400 Q801 ESBUM/N0457F390 Q802 ELALO ELALO1A
Aircraft A333/H-SDE3GHIJ2J3J5M1RVWXY/LB2D1

Departure

Time 2026-05-04 17:27
Airport Hong Kong International Airport (VHHH)

Arrival

Time 2026-05-04 20:55
Airport Singapore Changi Airport (WSSS)
Time Latitude Longitude Altitude Speed Heading
2026-05-04 17:03 22.30986 113.92676 36 ft 0 kts 296°
2026-05-04 17:18 22.30983 113.92684 36 ft 4 kts 294°
2026-05-04 17:19 22.30969 113.92740 32 ft 4 kts 273°
2026-05-04 17:19 22.30968 113.92762 32 ft 0 kts 270°
2026-05-04 17:22 22.30965 113.92759 33 ft 1 kts 247°
2026-05-04 17:22 22.30957 113.92757 34 ft 1 kts 197°
2026-05-04 17:23 22.30781 113.92538 36 ft 26 kts 251°
2026-05-04 17:23 22.30699 113.92301 36 ft 41 kts 248°
2026-05-04 17:23 22.30481 113.91621 36 ft 48 kts 249°
2026-05-04 17:24 22.30376 113.91286 36 ft 47 kts 253°
2026-05-04 17:24 22.30065 113.90312 36 ft 44 kts 251°
2026-05-04 17:25 22.29962 113.90000 36 ft 44 kts 250°
2026-05-04 17:25 22.29767 113.89757 36 ft 18 kts 160°
2026-05-04 17:26 22.29625 113.89842 34 ft 2 kts 70°
2026-05-04 17:26 22.30101 113.91300 36 ft 148 kts 71°
2026-05-04 17:27 22.30915 113.93632 1194 ft 170 kts 71°
2026-05-04 17:27 22.31763 113.96116 2464 ft 182 kts 73°
2026-05-04 17:28 22.32645 113.98882 3188 ft 213 kts 74°
2026-05-04 17:29 22.33828 114.03865 4564 ft 242 kts 93°
2026-05-04 17:29 22.31185 114.08255 6238 ft 244 kts 158°
2026-05-04 17:30 22.26176 114.08754 7984 ft 245 kts 184°
2026-05-04 17:31 22.22720 114.08696 8946 ft 260 kts 184°
2026-05-04 17:31 22.16995 114.09129 10185 ft 292 kts 160°
2026-05-04 17:32 22.14099 114.12515 10637 ft 334 kts 120°
2026-05-04 17:33 22.11219 114.18769 11378 ft 359 kts 119°
2026-05-04 17:33 22.10089 114.21193 11837 ft 363 kts 119°
2026-05-04 17:34 22.05763 114.27798 13183 ft 363 kts 146°
2026-05-04 17:34 22.03733 114.29432 13664 ft 364 kts 147°
2026-05-04 17:35 21.97088 114.33324 14849 ft 362 kts 176°
2026-05-04 17:35 21.92292 114.32343 15654 ft 353 kts 212°
2026-05-04 17:35 21.90302 114.30856 16074 ft 353 kts 220°
2026-05-04 17:36 21.88372 114.29202 16528 ft 353 kts 221°
2026-05-04 17:36 21.86451 114.27534 16950 ft 355 kts 221°
2026-05-04 17:36 21.84517 114.25863 17328 ft 358 kts 220°
2026-05-04 17:36 21.82563 114.24185 17667 ft 361 kts 220°
2026-05-04 17:37 21.80589 114.22497 18052 ft 363 kts 220°
2026-05-04 17:37 21.78603 114.20803 18433 ft 365 kts 220°
2026-05-04 17:37 21.76609 114.19105 18764 ft 366 kts 220°
2026-05-04 17:37 21.74606 114.17402 19089 ft 368 kts 220°
2026-05-04 17:38 21.72622 114.15716 19413 ft 369 kts 221°
2026-05-04 17:38 21.70603 114.14001 19733 ft 371 kts 221°
2026-05-04 17:38 21.68574 114.12278 20048 ft 372 kts 221°
2026-05-04 17:38 21.66534 114.10558 20369 ft 374 kts 219°
2026-05-04 17:39 21.61804 114.08119 20979 ft 385 kts 199°
2026-05-04 17:39 21.59193 114.07414 21274 ft 388 kts 198°
2026-05-04 17:39 21.56561 114.06747 21555 ft 390 kts 197°
2026-05-04 17:40 21.53912 114.06077 21849 ft 391 kts 198°
2026-05-04 17:40 21.51254 114.05399 22126 ft 393 kts 198°
2026-05-04 17:40 21.48583 114.04713 22400 ft 395 kts 198°
2026-05-04 17:40 21.45902 114.04024 22677 ft 396 kts 198°
2026-05-04 17:41 21.43172 114.03488 22945 ft 401 kts 192°
2026-05-04 17:41 21.40416 114.03171 23201 ft 404 kts 189°
2026-05-04 17:41 21.37598 114.02956 23460 ft 407 kts 188°
2026-05-04 17:41 21.34761 114.02790 23697 ft 409 kts 188°
2026-05-04 17:42 21.31919 114.02639 23896 ft 410 kts 188°
2026-05-04 17:42 21.29057 114.02482 24085 ft 412 kts 188°
2026-05-04 17:42 21.26187 114.02313 24266 ft 414 kts 188°
2026-05-04 17:42 21.23308 114.02134 24452 ft 415 kts 188°
2026-05-04 17:43 21.20415 114.01946 24646 ft 416 kts 188°
2026-05-04 17:43 21.17518 114.01753 24847 ft 418 kts 188°
2026-05-04 17:43 21.14608 114.01558 25039 ft 419 kts 188°
2026-05-04 17:43 21.11728 114.01365 25238 ft 420 kts 188°
2026-05-04 17:44 21.08801 114.01168 25429 ft 422 kts 188°
2026-05-04 17:44 21.05871 114.00972 25624 ft 423 kts 188°
2026-05-04 17:44 21.02925 114.00775 25820 ft 424 kts 188°
2026-05-04 17:44 20.99971 114.00578 26013 ft 426 kts 188°
2026-05-04 17:45 20.97010 114.00381 26175 ft 427 kts 188°
2026-05-04 17:45 20.94052 114.00075 26318 ft 426 kts 194°
2026-05-04 17:45 20.91134 113.99520 26522 ft 426 kts 195°
2026-05-04 17:45 20.88227 113.98899 26719 ft 426 kts 197°
2026-05-04 17:46 20.85319 113.98236 26916 ft 427 kts 197°
2026-05-04 17:46 20.82407 113.97552 27120 ft 428 kts 197°
2026-05-04 17:46 20.79496 113.96862 27302 ft 430 kts 197°
2026-05-04 17:46 20.76569 113.96169 27495 ft 431 kts 197°
2026-05-04 17:47 20.73629 113.95476 27685 ft 432 kts 197°
2026-05-04 17:47 20.70725 113.94795 27875 ft 434 kts 197°
2026-05-04 17:47 20.67764 113.94104 28037 ft 435 kts 197°
2026-05-04 17:47 20.64791 113.93412 28184 ft 438 kts 197°
2026-05-04 17:48 20.61803 113.92718 28364 ft 439 kts 197°
2026-05-04 17:48 20.58812 113.92024 28566 ft 440 kts 197°
2026-05-04 17:48 20.55817 113.91329 28747 ft 442 kts 197°
2026-05-04 17:48 20.52807 113.90632 28934 ft 443 kts 197°
2026-05-04 17:49 20.49792 113.89932 29108 ft 444 kts 197°
2026-05-04 17:49 20.46765 113.89231 29291 ft 445 kts 197°
2026-05-04 17:49 20.43733 113.88528 29458 ft 447 kts 197°
2026-05-04 17:49 20.40696 113.87824 29637 ft 448 kts 197°
2026-05-04 17:50 20.37647 113.87118 29798 ft 449 kts 197°
2026-05-04 17:50 20.34587 113.86410 29970 ft 450 kts 197°
2026-05-04 17:50 20.31522 113.85700 30112 ft 451 kts 197°
2026-05-04 17:50 20.28450 113.84990 30243 ft 452 kts 197°
2026-05-04 17:51 20.25410 113.84287 30377 ft 454 kts 197°
2026-05-04 17:51 20.22318 113.83572 30516 ft 455 kts 197°
2026-05-04 17:51 20.19223 113.82857 30656 ft 456 kts 197°
2026-05-04 17:51 20.16117 113.82140 30790 ft 457 kts 197°
2026-05-04 17:52 20.13004 113.81421 30933 ft 458 kts 197°
2026-05-04 17:52 20.09888 113.80702 31050 ft 459 kts 197°
2026-05-04 17:52 20.03616 113.79255 31258 ft 463 kts 197°
2026-05-04 17:53 20.00469 113.78529 31425 ft 464 kts 197°
2026-05-04 17:53 19.97305 113.77801 31620 ft 465 kts 197°
2026-05-04 17:53 19.94140 113.77072 31801 ft 466 kts 197°
2026-05-04 17:53 19.90966 113.76342 32009 ft 467 kts 197°
2026-05-04 17:54 19.87788 113.75611 32268 ft 468 kts 197°
2026-05-04 17:54 19.84612 113.74881 32594 ft 466 kts 197°
2026-05-04 17:54 19.81474 113.74160 32906 ft 466 kts 197°
2026-05-04 17:54 19.78303 113.73432 33167 ft 466 kts 197°
2026-05-04 17:55 19.75130 113.72702 33428 ft 467 kts 197°
2026-05-04 17:55 19.71946 113.71971 33742 ft 466 kts 197°
2026-05-04 17:55 19.68778 113.71244 34071 ft 465 kts 197°
2026-05-04 17:55 19.65612 113.70518 34368 ft 464 kts 197°
2026-05-04 17:56 19.62481 113.69800 34665 ft 464 kts 197°
2026-05-04 17:56 19.59335 113.69079 34949 ft 463 kts 197°
2026-05-04 17:56 19.56184 113.68356 35249 ft 462 kts 197°
2026-05-04 17:56 19.53039 113.67636 35533 ft 461 kts 197°
2026-05-04 17:57 19.49903 113.66917 35800 ft 460 kts 197°
2026-05-04 17:57 19.46769 113.66199 36043 ft 460 kts 197°
2026-05-04 17:57 19.43636 113.65481 36283 ft 461 kts 197°
2026-05-04 17:57 19.40501 113.64764 36548 ft 460 kts 197°
2026-05-04 17:58 19.37405 113.64056 36806 ft 459 kts 197°
2026-05-04 17:58 19.34279 113.63341 37062 ft 459 kts 197°
2026-05-04 17:58 19.31159 113.62629 37315 ft 458 kts 197°
2026-05-04 17:58 19.28044 113.61917 37568 ft 458 kts 197°
2026-05-04 17:59 19.24930 113.61206 37818 ft 457 kts 197°
2026-05-04 17:59 19.21816 113.60496 38056 ft 456 kts 197°
2026-05-04 17:59 19.15618 113.59082 38563 ft 454 kts 197°
2026-05-04 18:00 19.12537 113.58381 38795 ft 452 kts 197°
2026-05-04 18:00 19.09464 113.57681 38960 ft 452 kts 197°
2026-05-04 18:00 19.06386 113.56979 39128 ft 452 kts 197°
2026-05-04 18:00 19.03310 113.56279 39295 ft 451 kts 197°
2026-05-04 18:01 19.00237 113.55589 39456 ft 452 kts 195°
2026-05-04 18:01 18.97137 113.55016 39628 ft 453 kts 193°
2026-05-04 18:01 18.94016 113.54542 39785 ft 453 kts 192°
2026-05-04 18:02 18.87780 113.53704 39947 ft 457 kts 192°
2026-05-04 18:02 18.84617 113.53282 39954 ft 460 kts 192°
2026-05-04 18:02 18.78256 113.52407 39953 ft 460 kts 192°
2026-05-04 18:03 18.71914 113.51510 39952 ft 459 kts 192°
2026-05-04 18:03 18.65578 113.50605 39952 ft 459 kts 192°
2026-05-04 18:04 18.59260 113.49612 39948 ft 456 kts 197°
2026-05-04 18:04 18.53424 113.47255 39950 ft 445 kts 214°
2026-05-04 18:05 18.50823 113.45497 39950 ft 443 kts 217°
2026-05-04 18:05 18.45812 113.41719 39949 ft 443 kts 220°
2026-05-04 18:06 18.38427 113.35926 39950 ft 443 kts 220°
2026-05-04 18:06 18.33458 113.32070 39949 ft 443 kts 219°
2026-05-04 18:07 18.28476 113.28232 39941 ft 443 kts 219°
2026-05-04 18:07 18.23525 113.24427 39955 ft 444 kts 219°
2026-05-04 18:08 18.18532 113.20591 39941 ft 444 kts 219°
2026-05-04 18:08 18.13536 113.16755 39942 ft 444 kts 219°
2026-05-04 18:09 18.03591 113.09126 39948 ft 444 kts 219°
2026-05-04 18:10 17.98597 113.05299 39945 ft 444 kts 220°
2026-05-04 18:10 17.93610 113.01481 39938 ft 443 kts 220°
2026-05-04 18:11 17.88625 112.97667 39948 ft 443 kts 220°
2026-05-04 18:11 17.83659 112.93841 39948 ft 443 kts 220°
2026-05-04 18:12 17.78736 112.89969 39945 ft 442 kts 220°
2026-05-04 18:12 17.73842 112.86107 39936 ft 442 kts 220°
2026-05-04 18:13 17.68914 112.82228 39941 ft 442 kts 220°
2026-05-04 18:14 17.61533 112.76433 39941 ft 442 kts 220°
2026-05-04 18:14 17.56606 112.72569 39937 ft 442 kts 220°
2026-05-04 18:15 17.46781 112.64873 39941 ft 442 kts 220°
2026-05-04 18:16 17.41851 112.61014 39937 ft 442 kts 220°
2026-05-04 18:16 17.36921 112.57158 39942 ft 442 kts 220°
2026-05-04 18:17 17.29529 112.51382 39942 ft 442 kts 220°
2026-05-04 18:18 17.22131 112.45606 39943 ft 442 kts 220°
2026-05-04 18:18 17.17195 112.41756 39940 ft 442 kts 220°
2026-05-04 18:19 17.09817 112.36006 39937 ft 443 kts 220°
2026-05-04 18:19 17.04863 112.32149 39935 ft 444 kts 220°
2026-05-04 18:20 16.99904 112.28294 39939 ft 444 kts 219°
2026-05-04 18:20 16.95757 112.25123 39934 ft 444 kts 219°
2026-05-04 18:21 16.90748 112.21331 39934 ft 444 kts 219°
2026-05-04 18:21 16.84930 112.16932 39933 ft 444 kts 219°
2026-05-04 18:22 16.80764 112.13778 39928 ft 445 kts 219°
2026-05-04 18:22 16.75739 112.09973 39933 ft 447 kts 219°
2026-05-04 18:23 16.70698 112.06158 39931 ft 447 kts 219°
2026-05-04 18:23 16.65656 112.02347 39934 ft 447 kts 219°
2026-05-04 18:24 16.60649 111.98563 39926 ft 447 kts 219°
2026-05-04 18:24 16.55598 111.94749 39932 ft 447 kts 219°
2026-05-04 18:25 16.50557 111.90946 39930 ft 447 kts 219°
2026-05-04 18:25 16.45539 111.87161 39931 ft 447 kts 219°
2026-05-04 18:26 16.40496 111.83361 39933 ft 447 kts 219°
2026-05-04 18:26 16.35456 111.79566 39936 ft 447 kts 219°
2026-05-04 18:27 16.30417 111.75773 39932 ft 447 kts 219°
2026-05-04 18:27 16.25372 111.71979 39932 ft 447 kts 219°
2026-05-04 18:28 16.20321 111.68181 39926 ft 448 kts 218°
2026-05-04 18:28 16.15298 111.64408 39927 ft 448 kts 218°
2026-05-04 18:29 16.10241 111.60612 39930 ft 448 kts 218°
2026-05-04 18:29 16.05182 111.56817 39930 ft 448 kts 218°
2026-05-04 18:30 15.97594 111.51129 39930 ft 448 kts 218°
2026-05-04 18:31 15.92532 111.47337 39927 ft 448 kts 218°
2026-05-04 18:31 15.87505 111.43574 39928 ft 449 kts 218°
2026-05-04 18:32 15.82426 111.39774 39927 ft 450 kts 218°
2026-05-04 18:32 15.77335 111.35969 39925 ft 450 kts 218°
2026-05-04 18:33 15.72248 111.32169 39928 ft 450 kts 218°
2026-05-04 18:33 15.67163 111.28372 39922 ft 450 kts 218°
2026-05-04 18:34 15.62097 111.24592 39920 ft 450 kts 218°
2026-05-04 18:34 15.57008 111.20797 39924 ft 451 kts 218°
2026-05-04 18:35 15.51908 111.16995 39923 ft 452 kts 218°
2026-05-04 18:35 15.46795 111.13188 39924 ft 452 kts 218°
2026-05-04 18:36 15.41680 111.09382 39921 ft 452 kts 218°
2026-05-04 18:36 15.36599 111.05602 39923 ft 451 kts 218°
2026-05-04 18:37 15.31518 111.01772 39923 ft 451 kts 219°
2026-05-04 18:37 15.26459 110.97918 39922 ft 452 kts 219°
2026-05-04 18:38 15.21392 110.94059 39924 ft 452 kts 219°
2026-05-04 18:38 15.16318 110.90204 39919 ft 452 kts 219°
2026-05-04 18:39 15.11278 110.86380 39920 ft 452 kts 219°
2026-05-04 18:39 15.06200 110.82531 39917 ft 452 kts 219°
2026-05-04 18:40 15.01122 110.78683 39920 ft 452 kts 219°
2026-05-04 18:40 14.96049 110.74841 39919 ft 452 kts 218°
2026-05-04 18:41 14.90980 110.71005 39920 ft 452 kts 218°
2026-05-04 18:41 14.85901 110.67163 39920 ft 452 kts 218°
2026-05-04 18:42 14.80824 110.63325 39917 ft 452 kts 218°
2026-05-04 18:42 14.75780 110.59514 39916 ft 452 kts 218°
2026-05-04 18:43 14.70703 110.55681 39916 ft 452 kts 218°
2026-05-04 18:43 14.65624 110.51848 39915 ft 452 kts 218°
2026-05-04 18:44 14.60551 110.48022 39919 ft 451 kts 218°
2026-05-04 18:44 14.55471 110.44193 39917 ft 453 kts 218°
2026-05-04 18:45 14.50366 110.40347 39914 ft 454 kts 218°
2026-05-04 18:45 14.45296 110.36530 39915 ft 454 kts 218°
2026-05-04 18:46 14.40175 110.32678 39917 ft 454 kts 218°
2026-05-04 18:46 14.35061 110.28832 39918 ft 454 kts 218°
2026-05-04 18:47 14.29949 110.24991 39917 ft 454 kts 218°
2026-05-04 18:47 14.24878 110.21182 39918 ft 454 kts 218°
2026-05-04 18:48 14.19770 110.17347 39913 ft 454 kts 218°
2026-05-04 18:48 14.14660 110.13514 39916 ft 454 kts 218°
2026-05-04 18:49 14.09542 110.09676 39916 ft 455 kts 218°
2026-05-04 18:49 14.04419 110.05837 39915 ft 455 kts 218°
2026-05-04 18:50 13.99298 110.02002 39914 ft 455 kts 218°
2026-05-04 18:50 13.94095 109.98269 39913 ft 456 kts 215°
2026-05-04 18:51 13.88706 109.94800 39915 ft 457 kts 214°
2026-05-04 18:51 13.83287 109.91380 39913 ft 457 kts 214°
2026-05-04 18:52 13.77881 109.87938 39916 ft 457 kts 214°
2026-05-04 18:52 13.72488 109.84478 39913 ft 457 kts 214°
2026-05-04 18:53 13.67120 109.81027 39911 ft 457 kts 214°
2026-05-04 18:53 13.61722 109.77559 39914 ft 457 kts 214°
2026-05-04 18:54 13.56321 109.74092 39910 ft 457 kts 214°
2026-05-04 18:54 13.50905 109.70619 39910 ft 457 kts 214°
2026-05-04 18:55 13.45528 109.67172 39911 ft 457 kts 214°
2026-05-04 18:55 13.37424 109.61980 39912 ft 458 kts 214°
2026-05-04 18:56 13.32014 109.58517 39910 ft 458 kts 214°
2026-05-04 18:56 13.26596 109.55050 39909 ft 458 kts 214°
2026-05-04 18:57 13.21178 109.51586 39915 ft 458 kts 214°
2026-05-04 18:57 13.15789 109.48141 39917 ft 458 kts 214°
2026-05-04 18:58 13.10367 109.44678 39916 ft 458 kts 214°
2026-05-04 18:58 13.04980 109.41239 39916 ft 454 kts 214°
2026-05-04 18:59 12.99631 109.37825 39922 ft 452 kts 214°
2026-05-04 18:59 12.94285 109.34415 39921 ft 452 kts 214°
2026-05-04 19:00 12.88939 109.31006 39923 ft 452 kts 214°
2026-05-04 19:00 12.83599 109.27604 39923 ft 452 kts 214°
2026-05-04 19:01 12.78253 109.24199 39931 ft 452 kts 214°
2026-05-04 19:01 12.72937 109.20815 39929 ft 453 kts 214°
2026-05-04 19:02 12.67572 109.17402 39932 ft 454 kts 214°
2026-05-04 19:02 12.62202 109.13989 39932 ft 454 kts 214°
2026-05-04 19:03 12.56828 109.10577 39942 ft 454 kts 214°
2026-05-04 19:03 12.51452 109.07165 39940 ft 454 kts 214°
2026-05-04 19:04 12.46071 109.03751 39939 ft 454 kts 214°
2026-05-04 19:04 12.40730 109.00365 39936 ft 455 kts 214°
2026-05-04 19:05 12.35345 108.96952 39959 ft 455 kts 214°
2026-05-04 19:05 12.29958 108.93540 39956 ft 455 kts 214°
2026-05-04 19:06 12.24573 108.90131 39960 ft 455 kts 214°
2026-05-04 19:06 12.19189 108.86724 39961 ft 455 kts 214°
2026-05-04 19:07 12.13829 108.83334 39973 ft 455 kts 214°
2026-05-04 19:07 12.08441 108.79928 39965 ft 455 kts 214°
2026-05-04 19:08 12.03946 108.77087 39967 ft 456 kts 214°
2026-05-04 19:08 11.98551 108.73680 39965 ft 456 kts 213°
2026-05-04 19:09 11.93153 108.70272 39971 ft 455 kts 213°
2026-05-04 19:09 11.87763 108.66871 39969 ft 455 kts 213°
2026-05-04 19:10 11.83273 108.64040 39954 ft 455 kts 213°
2026-05-04 19:10 11.76997 108.60084 39951 ft 455 kts 213°
2026-05-04 19:11 11.71589 108.56676 39979 ft 457 kts 213°
2026-05-04 19:11 11.66169 108.53263 39939 ft 458 kts 213°
2026-05-04 19:12 11.58070 108.48167 39944 ft 458 kts 213°
2026-05-04 19:13 11.52641 108.44753 39917 ft 458 kts 213°
2026-05-04 19:13 11.47219 108.41344 39937 ft 457 kts 213°
2026-05-04 19:14 11.41799 108.37938 39906 ft 458 kts 213°
2026-05-04 19:14 11.36355 108.34519 39904 ft 460 kts 213°
2026-05-04 19:15 11.30901 108.31095 39899 ft 460 kts 213°
2026-05-04 19:15 11.25484 108.27697 39886 ft 460 kts 213°
2026-05-04 19:16 11.20031 108.24277 39890 ft 460 kts 213°
2026-05-04 19:16 11.14568 108.20852 39873 ft 460 kts 213°
2026-05-04 19:17 11.09110 108.17431 39875 ft 460 kts 213°
2026-05-04 19:17 11.03688 108.14035 39871 ft 460 kts 213°
2026-05-04 19:18 10.98240 108.10624 39869 ft 460 kts 213°
2026-05-04 19:18 10.92784 108.07204 39870 ft 460 kts 213°
2026-05-04 19:19 10.87402 108.03684 39869 ft 460 kts 215°
2026-05-04 19:19 10.82056 108.00107 39873 ft 460 kts 215°
2026-05-04 19:20 10.76706 107.96533 39865 ft 460 kts 214°
2026-05-04 19:20 10.71350 107.92971 39881 ft 461 kts 214°
2026-05-04 19:21 10.66007 107.89425 39866 ft 461 kts 214°
2026-05-04 19:21 10.60635 107.85864 39864 ft 461 kts 214°
2026-05-04 19:22 10.55258 107.82299 39865 ft 461 kts 214°
2026-05-04 19:22 10.49885 107.78739 39859 ft 461 kts 214°
2026-05-04 19:23 10.44510 107.75181 39861 ft 461 kts 214°
2026-05-04 19:23 10.39125 107.71627 39864 ft 462 kts 214°
2026-05-04 19:24 10.33727 107.68070 39861 ft 462 kts 214°
2026-05-04 19:24 10.28359 107.64534 39863 ft 462 kts 214°
2026-05-04 19:25 10.22957 107.60977 39864 ft 462 kts 214°
2026-05-04 19:25 10.17553 107.57420 39864 ft 462 kts 214°
2026-05-04 19:26 10.12153 107.53865 39861 ft 462 kts 214°
2026-05-04 19:26 10.06756 107.50305 39878 ft 463 kts 214°
2026-05-04 19:27 10.01358 107.46743 39863 ft 463 kts 215°
2026-05-04 19:27 9.95987 107.43201 39863 ft 463 kts 214°
2026-05-04 19:28 9.90581 107.39639 39879 ft 463 kts 215°
2026-05-04 19:28 9.85187 107.36086 39862 ft 460 kts 215°
2026-05-04 19:29 9.79825 107.32556 39864 ft 458 kts 215°
2026-05-04 19:29 9.74470 107.29030 39863 ft 458 kts 214°
2026-05-04 19:30 9.69114 107.25505 39866 ft 460 kts 214°
2026-05-04 19:30 9.63767 107.21988 39867 ft 461 kts 214°
2026-05-04 19:31 9.58376 107.18444 39868 ft 461 kts 214°
2026-05-04 19:31 9.52994 107.14908 39867 ft 461 kts 215°
2026-05-04 19:32 9.47607 107.11368 39870 ft 461 kts 214°
2026-05-04 19:32 9.42225 107.07834 39869 ft 461 kts 214°
2026-05-04 19:33 9.36833 107.04294 39867 ft 462 kts 213°
2026-05-04 19:33 9.31419 107.00740 39869 ft 464 kts 213°
2026-05-04 19:34 9.26034 106.97209 39871 ft 464 kts 213°
2026-05-04 19:34 9.20616 106.93656 39871 ft 464 kts 213°
2026-05-04 19:35 9.15192 106.90101 39869 ft 464 kts 213°
2026-05-04 19:35 9.09774 106.86551 39872 ft 464 kts 213°
2026-05-04 19:36 9.04354 106.83001 39873 ft 464 kts 213°
2026-05-04 19:36 8.98902 106.79431 39874 ft 466 kts 213°
2026-05-04 19:37 8.93481 106.75883 39873 ft 468 kts 212°
2026-05-04 19:37 8.88023 106.72312 39873 ft 467 kts 212°
2026-05-04 19:38 8.82559 106.68739 39874 ft 467 kts 213°
2026-05-04 19:38 8.77096 106.65167 39872 ft 467 kts 212°
2026-05-04 19:39 8.71624 106.61619 39871 ft 467 kts 212°
2026-05-04 19:39 8.66090 106.58166 39871 ft 468 kts 211°
2026-05-04 19:40 8.60551 106.54748 39873 ft 468 kts 211°
2026-05-04 19:40 8.54987 106.51307 39870 ft 469 kts 211°
2026-05-04 19:41 8.49431 106.47862 39870 ft 468 kts 211°
2026-05-04 19:41 8.43873 106.44413 39871 ft 468 kts 211°
2026-05-04 19:42 8.38322 106.40969 39871 ft 469 kts 211°
2026-05-04 19:42 8.32757 106.37518 39869 ft 469 kts 211°
2026-05-04 19:43 8.27182 106.34062 39872 ft 471 kts 210°
2026-05-04 19:43 8.21650 106.30634 39870 ft 469 kts 210°
2026-05-04 19:44 8.16082 106.27185 39872 ft 469 kts 211°
2026-05-04 19:44 8.10510 106.23735 39870 ft 469 kts 210°
2026-05-04 19:45 8.04936 106.20285 39866 ft 469 kts 210°
2026-05-04 19:45 7.99370 106.16840 39867 ft 470 kts 210°
2026-05-04 19:46 7.93797 106.13393 39867 ft 470 kts 210°
2026-05-04 19:46 7.88216 106.09942 39866 ft 470 kts 210°
2026-05-04 19:47 7.82673 106.06515 39868 ft 470 kts 210°
2026-05-04 19:47 7.77093 106.03066 39868 ft 470 kts 210°
2026-05-04 19:48 7.71512 105.99618 39868 ft 470 kts 210°
2026-05-04 19:48 7.65942 105.96178 39867 ft 467 kts 210°
2026-05-04 19:49 7.60406 105.92759 39867 ft 466 kts 210°
2026-05-04 19:49 7.54879 105.89348 39871 ft 466 kts 210°
2026-05-04 19:50 7.49346 105.85934 39862 ft 466 kts 210°
2026-05-04 19:50 7.43847 105.82542 39864 ft 466 kts 210°
2026-05-04 19:51 7.38317 105.79131 39864 ft 466 kts 210°
2026-05-04 19:51 7.32773 105.75714 39866 ft 466 kts 210°
2026-05-04 19:52 7.27244 105.72306 39864 ft 466 kts 210°
2026-05-04 19:52 7.21735 105.68911 39864 ft 466 kts 210°
2026-05-04 19:53 7.16194 105.65498 39864 ft 466 kts 210°
2026-05-04 19:53 7.10657 105.62088 39865 ft 466 kts 210°
2026-05-04 19:54 7.05138 105.58691 39863 ft 464 kts 210°
2026-05-04 19:54 7.00554 105.55874 39866 ft 464 kts 209°
2026-05-04 19:55 6.94883 105.52780 39865 ft 463 kts 205°
2026-05-04 19:55 6.89102 105.49897 39867 ft 464 kts 204°
2026-05-04 19:56 6.83309 105.47012 39866 ft 465 kts 205°
2026-05-04 19:56 6.77525 105.44092 39863 ft 465 kts 205°
2026-05-04 19:57 6.71778 105.41169 39866 ft 465 kts 205°
2026-05-04 19:57 6.66004 105.38230 39865 ft 465 kts 205°
2026-05-04 19:58 6.60225 105.35290 39865 ft 465 kts 205°
2026-05-04 19:58 6.54439 105.32349 39863 ft 465 kts 205°
2026-05-04 19:59 6.48667 105.29416 39861 ft 464 kts 205°
2026-05-04 19:59 6.42932 105.26504 39861 ft 465 kts 205°
2026-05-04 20:00 6.37141 105.23563 39862 ft 465 kts 205°
2026-05-04 20:00 6.31351 105.20623 39857 ft 465 kts 205°
2026-05-04 20:01 6.25568 105.17687 39857 ft 465 kts 205°
2026-05-04 20:01 6.19827 105.14774 39856 ft 464 kts 205°
2026-05-04 20:02 6.14062 105.11849 39853 ft 463 kts 205°
2026-05-04 20:02 6.08312 105.08932 39855 ft 463 kts 205°
2026-05-04 20:03 6.02561 105.06016 39854 ft 463 kts 205°
2026-05-04 20:03 5.96839 105.03115 39853 ft 463 kts 205°
2026-05-04 20:04 5.91084 105.00198 39853 ft 463 kts 205°
2026-05-04 20:04 5.85335 104.97285 39854 ft 463 kts 205°
2026-05-04 20:05 5.79577 104.94368 39853 ft 463 kts 205°
2026-05-04 20:05 5.73858 104.91471 39850 ft 463 kts 205°
2026-05-04 20:06 5.68090 104.88551 39854 ft 465 kts 205°
2026-05-04 20:06 5.62310 104.85625 39854 ft 465 kts 205°
2026-05-04 20:07 5.56528 104.82698 39853 ft 465 kts 205°
2026-05-04 20:07 5.50751 104.79774 39854 ft 465 kts 205°
2026-05-04 20:08 5.44968 104.76849 39853 ft 465 kts 205°
2026-05-04 20:08 5.39184 104.73923 39852 ft 465 kts 205°
2026-05-04 20:09 5.33436 104.71016 39856 ft 465 kts 205°
2026-05-04 20:09 5.27649 104.68090 39853 ft 465 kts 205°
2026-05-04 20:10 5.21869 104.65168 39853 ft 465 kts 205°
2026-05-04 20:10 5.16088 104.62247 39854 ft 465 kts 205°
2026-05-04 20:11 5.10313 104.59329 39855 ft 464 kts 205°
2026-05-04 20:11 5.04548 104.56416 39852 ft 464 kts 205°
2026-05-04 20:12 4.98821 104.53524 39852 ft 464 kts 205°
2026-05-04 20:12 4.93053 104.50611 39854 ft 464 kts 205°
2026-05-04 20:13 4.86996 104.48465 39854 ft 460 kts 188°
2026-05-04 20:13 4.80646 104.48311 39853 ft 457 kts 173°
2026-05-04 20:14 4.74349 104.49078 39855 ft 458 kts 171°
2026-05-04 20:14 4.68011 104.49889 39853 ft 459 kts 171°
2026-05-04 20:15 4.61667 104.50695 39857 ft 461 kts 171°
2026-05-04 20:15 4.55246 104.51507 39855 ft 469 kts 172°
2026-05-04 20:16 4.48708 104.52332 39854 ft 474 kts 172°
2026-05-04 20:16 4.42199 104.53153 39853 ft 474 kts 172°
2026-05-04 20:17 4.35650 104.53979 39853 ft 474 kts 171°
2026-05-04 20:17 4.29083 104.54807 39854 ft 474 kts 171°
2026-05-04 20:18 4.22534 104.55633 39854 ft 474 kts 172°
2026-05-04 20:18 4.16003 104.56324 39853 ft 475 kts 173°
2026-05-04 20:19 4.09428 104.56961 39854 ft 475 kts 173°
2026-05-04 20:19 4.02847 104.57602 39854 ft 475 kts 173°
2026-05-04 20:20 3.96269 104.58245 39853 ft 475 kts 173°
2026-05-04 20:20 3.89690 104.58865 39851 ft 475 kts 176°
2026-05-04 20:20 3.86383 104.58858 39730 ft 476 kts 183°
2026-05-04 20:21 3.83142 104.58380 39504 ft 475 kts 193°
2026-05-04 20:21 3.79972 104.57436 39267 ft 476 kts 198°
2026-05-04 20:21 3.73732 104.55200 38814 ft 477 kts 199°
2026-05-04 20:22 3.70616 104.54063 38597 ft 477 kts 199°
2026-05-04 20:22 3.67498 104.52926 38336 ft 477 kts 199°
2026-05-04 20:22 3.64368 104.51787 38065 ft 478 kts 199°
2026-05-04 20:22 3.61244 104.50651 37805 ft 479 kts 199°
2026-05-04 20:23 3.58112 104.49512 37550 ft 479 kts 199°
2026-05-04 20:23 3.54977 104.48373 37280 ft 480 kts 199°
2026-05-04 20:23 3.51835 104.47232 37039 ft 480 kts 199°
2026-05-04 20:23 3.48691 104.46089 36797 ft 480 kts 199°
2026-05-04 20:24 3.45546 104.44947 36546 ft 481 kts 199°
2026-05-04 20:24 3.42399 104.43804 36300 ft 481 kts 199°
2026-05-04 20:24 3.39286 104.42674 36064 ft 482 kts 199°
2026-05-04 20:24 3.36135 104.41530 35752 ft 481 kts 199°
2026-05-04 20:25 3.32990 104.40388 35144 ft 481 kts 199°
2026-05-04 20:25 3.29835 104.39243 34422 ft 484 kts 199°
2026-05-04 20:25 3.26664 104.38092 33640 ft 487 kts 199°
2026-05-04 20:25 3.23466 104.36931 32807 ft 489 kts 199°
2026-05-04 20:26 3.20256 104.35766 32021 ft 491 kts 199°
2026-05-04 20:26 3.17035 104.34597 31189 ft 493 kts 199°
2026-05-04 20:26 3.13800 104.33423 30332 ft 495 kts 199°
2026-05-04 20:26 3.10557 104.32246 29595 ft 494 kts 199°
2026-05-04 20:27 3.07381 104.31093 29011 ft 489 kts 199°
2026-05-04 20:27 3.04200 104.29938 28409 ft 483 kts 199°
2026-05-04 20:27 3.01052 104.28796 27827 ft 478 kts 199°
2026-05-04 20:27 2.97943 104.27668 27244 ft 473 kts 199°
2026-05-04 20:28 2.94873 104.26554 26794 ft 466 kts 199°
2026-05-04 20:28 2.91850 104.25457 26321 ft 459 kts 199°
2026-05-04 20:28 2.88853 104.24370 25747 ft 456 kts 198°
2026-05-04 20:28 2.85886 104.23294 25424 ft 448 kts 198°
2026-05-04 20:29 2.82983 104.22241 25021 ft 441 kts 198°
2026-05-04 20:29 2.80101 104.21196 24394 ft 441 kts 198°
2026-05-04 20:29 2.77217 104.20150 23782 ft 441 kts 198°
2026-05-04 20:29 2.74328 104.19103 23159 ft 440 kts 198°
2026-05-04 20:30 2.71466 104.18065 22712 ft 433 kts 198°
2026-05-04 20:30 2.68680 104.17053 22600 ft 418 kts 198°
2026-05-04 20:30 2.66028 104.16090 22485 ft 405 kts 198°
2026-05-04 20:30 2.63415 104.15142 22312 ft 393 kts 198°
2026-05-04 20:31 2.60876 104.14221 22135 ft 383 kts 198°
2026-05-04 20:31 2.58403 104.13324 21964 ft 373 kts 198°
2026-05-04 20:31 2.55986 104.12448 21716 ft 365 kts 198°
2026-05-04 20:31 2.53599 104.11583 21283 ft 364 kts 198°
2026-05-04 20:32 2.51193 104.10785 20827 ft 363 kts 191°
2026-05-04 20:32 2.48715 104.10413 20434 ft 358 kts 182°
2026-05-04 20:32 2.46229 104.10292 20046 ft 355 kts 179°
2026-05-04 20:32 2.43787 104.10301 19688 ft 352 kts 176°
2026-05-04 20:33 2.41346 104.10359 19337 ft 349 kts 176°
2026-05-04 20:33 2.38931 104.10421 19000 ft 346 kts 176°
2026-05-04 20:33 2.36527 104.10469 18662 ft 343 kts 177°
2026-05-04 20:33 2.34147 104.10499 18318 ft 341 kts 177°
2026-05-04 20:34 2.31779 104.10514 17968 ft 339 kts 178°
2026-05-04 20:34 2.29426 104.10520 17621 ft 337 kts 178°
2026-05-04 20:34 2.27089 104.10521 17283 ft 335 kts 178°
2026-05-04 20:34 2.24761 104.10519 16967 ft 334 kts 178°
2026-05-04 20:35 2.22444 104.10517 16641 ft 332 kts 178°
2026-05-04 20:35 2.20141 104.10515 16319 ft 330 kts 178°
2026-05-04 20:35 2.17850 104.10513 15995 ft 328 kts 178°
2026-05-04 20:35 2.15573 104.10513 15675 ft 326 kts 178°
2026-05-04 20:36 2.13318 104.10512 15438 ft 321 kts 178°
2026-05-04 20:36 2.11109 104.10511 15191 ft 314 kts 178°
2026-05-04 20:36 2.08934 104.10511 14889 ft 310 kts 178°
2026-05-04 20:36 2.06780 104.10511 14588 ft 307 kts 178°
2026-05-04 20:37 2.04649 104.10511 14275 ft 304 kts 179°
2026-05-04 20:37 2.02567 104.10511 13993 ft 302 kts 179°
2026-05-04 20:37 2.00480 104.10511 13697 ft 299 kts 179°
2026-05-04 20:37 1.98407 104.10513 13385 ft 296 kts 179°
2026-05-04 20:38 1.96384 104.10519 13252 ft 284 kts 179°
2026-05-04 20:38 1.94440 104.10526 12925 ft 278 kts 179°
2026-05-04 20:38 1.92505 104.10535 12472 ft 277 kts 179°
2026-05-04 20:38 1.90585 104.10544 12095 ft 274 kts 179°
2026-05-04 20:39 1.88697 104.10554 11886 ft 270 kts 179°
2026-05-04 20:39 1.86820 104.10563 11651 ft 269 kts 179°
2026-05-04 20:39 1.84974 104.10571 11391 ft 268 kts 179°
2026-05-04 20:39 1.83114 104.10580 11127 ft 267 kts 179°
2026-05-04 20:40 1.81263 104.10589 10866 ft 265 kts 179°
2026-05-04 20:40 1.79419 104.10597 10605 ft 264 kts 179°
2026-05-04 20:40 1.77583 104.10605 10347 ft 263 kts 179°
2026-05-04 20:40 1.75758 104.10614 10091 ft 262 kts 180°
2026-05-04 20:41 1.73940 104.10622 9834 ft 261 kts 180°
2026-05-04 20:41 1.72129 104.10630 9561 ft 259 kts 180°
2026-05-04 20:41 1.70325 104.10638 9300 ft 258 kts 180°
2026-05-04 20:41 1.68531 104.10646 9053 ft 257 kts 180°
2026-05-04 20:42 1.66740 104.10654 8797 ft 257 kts 180°
2026-05-04 20:42 1.64957 104.10662 8544 ft 256 kts 180°
2026-05-04 20:42 1.63781 104.10667 8377 ft 255 kts 180°
2026-05-04 20:42 1.62009 104.10710 8113 ft 254 kts 175°
2026-05-04 20:43 1.60253 104.10886 7846 ft 253 kts 173°
2026-05-04 20:43 1.58529 104.11102 7627 ft 249 kts 172°
2026-05-04 20:43 1.56805 104.11346 7370 ft 251 kts 172°
2026-05-04 20:43 1.55080 104.11603 7119 ft 251 kts 171°
2026-05-04 20:44 1.53358 104.11865 6868 ft 250 kts 171°
2026-05-04 20:44 1.51641 104.12125 6629 ft 249 kts 171°
2026-05-04 20:44 1.49922 104.12384 6384 ft 248 kts 172°
2026-05-04 20:44 1.48215 104.12638 6133 ft 247 kts 172°
2026-05-04 20:45 1.46529 104.12812 5938 ft 247 kts 182°
2026-05-04 20:45 1.44846 104.12523 5876 ft 246 kts 195°
2026-05-04 20:45 1.43213 104.12020 5826 ft 245 kts 200°
2026-05-04 20:45 1.41621 104.11409 5604 ft 245 kts 202°
2026-05-04 20:46 1.40058 104.10742 5358 ft 244 kts 204°
2026-05-04 20:46 1.38506 104.10052 5113 ft 243 kts 204°
2026-05-04 20:46 1.36962 104.09364 4867 ft 243 kts 205°
2026-05-04 20:46 1.35419 104.08684 4637 ft 242 kts 204°
2026-05-04 20:47 1.33877 104.08014 4401 ft 241 kts 204°
2026-05-04 20:47 1.32338 104.07354 4153 ft 240 kts 204°
2026-05-04 20:47 1.30801 104.06701 3966 ft 239 kts 203°
2026-05-04 20:47 1.29266 104.06051 3941 ft 239 kts 203°
2026-05-04 20:48 1.27734 104.05403 3937 ft 239 kts 203°
2026-05-04 20:48 1.26202 104.04756 3939 ft 239 kts 203°
2026-05-04 20:48 1.24691 104.04117 3939 ft 239 kts 204°
2026-05-04 20:48 1.23157 104.03468 3657 ft 239 kts 203°
2026-05-04 20:49 1.21653 104.02832 3481 ft 229 kts 203°
2026-05-04 20:49 1.20216 104.02224 3331 ft 220 kts 203°
2026-05-04 20:49 1.18869 104.01544 3072 ft 216 kts 219°
2026-05-04 20:49 1.18019 104.00340 2780 ft 213 kts 250°
2026-05-04 20:50 1.17651 103.98912 2522 ft 212 kts 259°
2026-05-04 20:50 1.17385 103.97470 2435 ft 206 kts 260°
2026-05-04 20:50 1.17228 103.96100 2430 ft 194 kts 276°
2026-05-04 20:50 1.17755 103.94897 2435 ft 190 kts 308°
2026-05-04 20:51 1.18697 103.93976 2482 ft 190 kts 324°
2026-05-04 20:51 1.19894 103.93450 2461 ft 190 kts 353°
2026-05-04 20:51 1.21187 103.93569 2437 ft 191 kts 15°
2026-05-04 20:51 1.22415 103.94058 2241 ft 190 kts 25°
2026-05-04 20:52 1.23627 103.94585 1965 ft 189 kts 23°
2026-05-04 20:52 1.24842 103.95091 1712 ft 188 kts 23°
2026-05-04 20:52 1.26042 103.95599 1463 ft 187 kts 24°
2026-05-04 20:52 1.27230 103.96103 1222 ft 181 kts 24°
2026-05-04 20:53 1.28351 103.96577 995 ft 167 kts 24°
2026-05-04 20:53 1.29373 103.97010 791 ft 152 kts 23°
2026-05-04 20:53 1.30306 103.97406 620 ft 139 kts 22°
2026-05-04 20:53 1.31176 103.97774 427 ft 134 kts 21°
2026-05-04 20:54 1.32026 103.98135 262 ft 134 kts 22°
2026-05-04 20:54 1.32888 103.98506 68 ft 135 kts 21°
2026-05-04 20:54 1.33701 103.98845 30 ft 106 kts 23°
2026-05-04 20:54 1.34223 103.99069 34 ft 69 kts 21°
2026-05-04 20:55 1.34632 103.99237 32 ft 58 kts 18°
2026-05-04 20:55 1.34883 103.99218 31 ft 22 kts 313°
2026-05-04 20:55 1.34829 103.99121 30 ft 19 kts 201°
2026-05-04 20:55 1.34705 103.99070 30 ft 20 kts 202°
2026-05-04 20:56 1.34572 103.99015 30 ft 21 kts 202°
2026-05-04 20:56 1.34430 103.98956 30 ft 23 kts 202°
2026-05-04 20:56 1.34322 103.98897 30 ft 5 kts 248°
2026-05-04 20:56 1.34326 103.98865 30 ft 7 kts 277°
2026-05-04 20:57 1.34310 103.98817 29 ft 8 kts 229°
2026-05-04 20:57 1.34285 103.98765 29 ft 9 kts 269°
2026-05-04 20:57 1.34300 103.98701 29 ft 10 kts 289°
2026-05-04 20:57 1.34302 103.98643 29 ft 6 kts 237°
2026-05-04 20:58 1.34270 103.98625 29 ft 6 kts 205°
2026-05-04 20:58 1.34250 103.98617 29 ft 0 kts 202°